Preview of NWS' New Version of Forecast
This preview is not operational and should not be used for support decisions.

Regional Weather Roundup (RWR)

Issued by National Weather Service (NWS)

                            
000
ASUS43 KDMX 251706
RWRIA 

WEATHER ROUNDUP FOR IOWA
NATIONAL WEATHER SERVICE DES MOINES IA
1200 PM CDT TUE JUN 25 2019

NOTE: "FAIR" INDICATES FEW OR NO CLOUDS BELOW 12,000 FEET WITH NO
SIGNIFICANT WEATHER AND/OR OBSTRUCTIONS TO VISIBILITY.

* - THESE STATIONS ARE NOT NWS STATIONS...THUS NOT UNDER NWS
QUALITY CONTROL.  THEY ALSO DO NOT REPORT WEATHER SUCH 
AS PRECIPITATION OR FOG.  

IAZ001>003-012>014-020>022-031>034-043>046-251800-
   NORTHWEST IOWA
  
CITY           SKY/WX    TMP DP  RH WIND       PRES   REMARKS
CARROLL *      SUNNY     77  61  57 NW14      29.89R                  
CHEROKEE *     SUNNY     77  60  55 W10       29.89R                  
DENISON *      SUNNY     77  63  61 W9        29.92R                  
LE MARS *      SUNNY     77  59  53 NW12      29.90R                  
SHELDON *      SUNNY     77  57  50 W14       29.87R                  
SIOUX CITY     SUNNY     78  63  59 NW8       29.89S HX  80           
SPENCER        SUNNY     79  58  48 W13       29.87R HX  80           
STORM LAKE *     N/A     75  59  57 W14       29.87S                  
$$
 
IAZ055>058-069>071-079>083-090>094-251800-
   SOUTHWEST IOWA
  
CITY           SKY/WX    TMP DP  RH WIND       PRES   REMARKS
ATLANTIC *     SUNNY     77  61  57 W8G14     29.90R                  
AUDUBON *      SUNNY     79  63  57 CALM      29.92R HX  80           
CLARINDA *     SUNNY     81  68  65 W12       29.94R HX  83           
COUNCIL BLFS * SUNNY     77  61  57 W6        29.90S                  
CRESTON *      SUNNY     77  64  65 W10G16    29.92R                  
HARLAN  *      SUNNY     75  63  64 NW9       29.91R                  
LAMONI         SUNNY     79  65  62 SW12      29.91R HX  81           
RED OAK *      SUNNY     81  63  54 VRB6G14   29.92R HX  82           
SHENANDOAH *   SUNNY     79  66  65 SW8       29.91R HX  81           
$$
 
IAZ047>049-059>061-072>074-084-251800-
   CENTRAL IOWA
  
CITY           SKY/WX    TMP DP  RH WIND       PRES   REMARKS
AMES           SUNNY     78  62  57 W12       29.88R HX  80           
ANKENY *       SUNNY     79  63  57 W10G18    29.89S HX  80           
BOONE *        SUNNY     77  64  65 W13       29.87S                  
CHARITON *     SUNNY     79  66  65 W10       29.90R HX  81           
DES MOINES     MOSUNNY   80  60  50 NW15G21   29.86F HX  81           
GRINNELL*      SUNNY     77  63  61 W13       29.90R                  
KNOXVILLE *    SUNNY     79  64  61 W10G16    29.88S HX  81           
MARSHALLTOWN   SUNNY     77  63  61 W15       29.87R                  
NEWTON *       SUNNY     79  64  61 W12G17    29.88S HX  81           
PELLA *          N/A     78  64  61 W9        29.89S HX  80           
$$
 
IAZ004>006-015-016-023>025-035-036-251800-
   NORTH CENTRAL IOWA
  
CITY           SKY/WX    TMP DP  RH WIND       PRES   REMARKS
ALGONA *       SUNNY     77  61  57 W17       29.85R                  
CLARION *      SUNNY     79  63  57 W14       29.87R HX  80           
ESTHERVILLE    SUNNY     75  58  55 W15G23    29.86R                  
FORT DODGE *   SUNNY     77  65  66 W12       29.88R                  
MASON CITY     SUNNY     77  60  55 W15       29.86R                  
FOREST CITY *  FAIR      77  59  53 NW12G17   29.85R                  
IOWA FALLS *   FAIR      78  61  55 W15       29.88R HX  80           
$$

IAZ007>011-017>019-026>030-037>042-050>054-066-251800-
   NORTHEAST IOWA
  
CITY           SKY/WX    TMP DP  RH WIND       PRES   REMARKS
CEDAR RAPIDS   FAIR      79  64  60 W15G24    29.85R HX  81           
CHARLES CITY * FAIR      77  61  57 NW13      29.84R                  
CLINTON *      FAIR      84  64  50 SW20G28   29.86R HX  85           
DECORAH *        N/A     73  64  73 SW9G16    29.81R                  
DUBUQUE        CLOUDY    72  62  71 SW10G21   29.86R                  
MONTICELLO *   FAIR      75  66  73 SW9       29.85R                  
OELWEIN *      FAIR      75  64  69 SW16      29.85S                  
WATERLOO       FAIR      79  60  52 W14G23    29.84R HX  80           
$$
 
IAZ064-065-067-068-078-251800-
   EAST CENTRAL IOWA
  
CITY           SKY/WX    TMP DP  RH WIND       PRES   REMARKS
DAVENPORT      FAIR      80  63  55 SW17G26   29.88R HX  81           
IOWA CITY      FAIR      79  63  57 W17G30    29.88R HX  80           
MT. PLEASANT * SUNNY     81  64  57 SW16G25   29.89R HX  82           
MUSCATINE *    FAIR      82  64  54 SW15G22   29.87S HX  84           
QUAD CITIES    FAIR      82  65  56 SW13G23   29.86R HX  84           
$$
 
IAZ062-063-075>077-085>089-095>099-251800-
   SOUTHEAST IOWA
  
CITY           SKY/WX    TMP DP  RH WIND       PRES   REMARKS
BURLINGTON     SUNNY     81  64  56 SW17G29   29.87S HX  82           
FAIRFIELD *    SUNNY     79  66  65 W13       29.89R HX  81           
FORT MADISON * SUNNY     79  66  65 S13       29.89R HX  81           
KEOKUK *       SUNNY     82  64  54 SW15G25   29.89S HX  84           
OSKALOOSA *    FAIR      79  63  58 W16       29.89S HX  80           
CENTERVILLE *  FAIR      79  68  69 SW15      29.92R HX  81           
OTTUMWA        SUNNY     79  66  64 SW14      29.89R HX  81           
WASHINGTON *   MOSUNNY   79  70  73 SW16G25   29.87R HX  81           
$$

ABBREVIATIONS USED IN REMARKS
   TC - TEMPERATURES IN CELSIUS
  WCI - WIND CHILL INDEX
   HX - HEAT INDEX
  VSB - VISIBILITY  
$$